| time (UTC) | temp C | wind direction | speed KPH | gust KPH | rain 1hr cm | rain 24hr cm | rain mn cm | humidity % | barometer mb |
| 20260506124546 | 18 | 242 | 1.6 | 14.5 | 0.00 | 0.00 | 0.00 | 77 | 1008.6 |
| 20260506123051 | 18 | 251 | 1.6 | 22.5 | 0.00 | 0.00 | 0.00 | 77 | 1008.8 |
| 20260506121544 | 18 | 0 | 3.2 | 22.5 | 0.00 | 0.00 | 0.00 | 77 | 1009.0 |
| 20260506120053 | 18 | 210 | 1.6 | 22.5 | 0.00 | 0.00 | 0.00 | 78 | 1009.2 |
| 20260506114553 | 18 | 178 | 3.2 | 20.9 | 0.00 | 0.00 | 0.00 | 80 | 1009.3 |
| 20260506113047 | 18 | 218 | 1.6 | 12.9 | 0.00 | 0.00 | 0.00 | 81 | 1009.2 |
| 20260506111548 | 17 | 188 | 3.2 | 12.9 | 0.00 | 0.00 | 0.00 | 81 | 1009.2 |
| 20260506110044 | 17 | 0 | 0.0 | 14.5 | 0.00 | 0.00 | 0.00 | 82 | 1009.0 |
| 20260506104545 | 17 | 0 | 0.0 | 14.5 | 0.00 | 0.00 | 0.00 | 83 | 1009.2 |
| 20260506103052 | 17 | 0 | 0.0 | 12.9 | 0.00 | 0.00 | 0.00 | 83 | 1009.1 |
| 20260506101547 | 17 | 0 | 0.0 | 12.9 | 0.00 | 0.00 | 0.00 | 84 | 1009.0 |
| 20260506094546 | 17 | 0 | 0.0 | 11.3 | 0.00 | 0.00 | 0.00 | 84 | 1008.8 |
| 20260506093044 | 17 | 0 | 0.0 | 9.7 | 0.00 | 0.00 | 0.00 | 83 | 1008.9 |
| 20260506091552 | 17 | 0 | 0.0 | 11.3 | 0.00 | 0.00 | 0.00 | 82 | 1008.8 |
| 20260506090047 | 17 | 0 | 0.0 | 8.0 | 0.00 | 0.00 | 0.00 | 82 | 1008.9 |
| 20260506084546 | 17 | 0 | 1.6 | 12.9 | 0.00 | 0.00 | 0.00 | 81 | 1009.1 |
| 20260506083048 | 17 | 0 | 0.0 | 8.0 | 0.00 | 0.00 | 0.00 | 80 | 1009.2 |
| 20260506081548 | 17 | 0 | 0.0 | 9.7 | 0.00 | 0.00 | 0.00 | 79 | 1009.1 |
| 20260506073048 | 18 | 0 | 0.0 | 14.5 | 0.00 | 0.00 | 0.00 | 76 | 1009.1 |
| 20260506071555 | 18 | 0 | 1.6 | 16.1 | 0.00 | 0.00 | 0.00 | 75 | 1009.3 |
| 20260506061547 | 18 | 0 | 1.6 | 12.9 | 0.00 | 0.00 | 0.00 | 72 | 1009.3 |
| 20260506044548 | 20 | 250 | 6.4 | 24.1 | 0.00 | 0.00 | 0.00 | 66 | 1009.8 |
| 20260506043045 | 20 | 169 | 3.2 | 17.7 | 0.00 | 0.00 | 0.00 | 66 | 1009.8 |
| 20260506041553 | 20 | 194 | 1.6 | 14.5 | 0.00 | 0.00 | 0.00 | 65 | 1009.8 |
| 20260506040044 | 20 | 194 | 1.6 | 17.7 | 0.00 | 0.00 | 0.00 | 65 | 1009.7 |
| 20260506034547 | 20 | 0 | 0.0 | 11.3 | 0.00 | 0.00 | 0.00 | 66 | 1009.8 |
| 20260506033046 | 20 | 0 | 1.6 | 12.9 | 0.00 | 0.00 | 0.00 | 65 | 1009.7 |
| 20260506031542 | 20 | 0 | 1.6 | 14.5 | 0.00 | 0.00 | 0.00 | 64 | 1009.6 |
| 20260506030057 | 20 | 198 | 1.6 | 12.9 | 0.00 | 0.00 | 0.00 | 63 | 1009.5 |
| 20260506024554 | 21 | 175 | 1.6 | 16.1 | 0.00 | 0.00 | 0.00 | 62 | 1009.6 |
| 20260506023047 | 21 | 0 | 1.6 | 16.1 | 0.00 | 0.00 | 0.00 | 60 | 1009.6 |
| 20260506021544 | 21 | 144 | 1.6 | 17.7 | 0.00 | 0.00 | 0.00 | 60 | 1009.5 |
| 20260506020047 | 21 | 258 | 1.6 | 17.7 | 0.00 | 0.00 | 0.00 | 60 | 1009.4 |
| 20260506014556 | 21 | 0 | 0.0 | 12.9 | 0.00 | 0.00 | 0.00 | 57 | 1009.3 |
| 20260506013048 | 23 | 0 | 1.6 | 19.3 | 0.00 | 0.00 | 0.00 | 52 | 1009.0 |
| 20260506011551 | 24 | 239 | 4.8 | 17.7 | 0.00 | 0.00 | 0.00 | 46 | 1008.7 |
| 20260506010056 | 25 | 230 | 6.4 | 22.5 | 0.00 | 0.00 | 0.00 | 44 | 1008.6 |
| 20260506004553 | 25 | 0 | 1.6 | 20.9 | 0.00 | 0.00 | 0.00 | 41 | 1008.5 |
| 20260506003046 | 25 | 0 | 1.6 | 17.7 | 0.00 | 0.00 | 0.00 | 39 | 1008.3 |
| 20260506001553 | 25 | 216 | 4.8 | 20.9 | 0.00 | 0.00 | 0.00 | 39 | 1008.0 |
| 20260506000058 | 25 | 269 | 4.8 | 24.1 | 0.00 | 0.00 | 0.00 | 38 | 1008.0 |
| 20260505234543 | 26 | 0 | 9.7 | 27.4 | 0.00 | 0.00 | 0.00 | 37 | 1007.9 |
| 20260505233048 | 26 | 0 | 3.2 | 19.3 | 0.00 | 0.00 | 0.00 | 36 | 1007.7 |
| 20260505231547 | 26 | 199 | 1.6 | 17.7 | 0.00 | 0.00 | 0.00 | 35 | 1007.5 |
| 20260505230050 | 26 | 267 | 12.9 | 35.4 | 0.00 | 0.00 | 0.00 | 34 | 1007.3 |
| 20260505224550 | 27 | 266 | 12.9 | 29.0 | 0.00 | 0.00 | 0.00 | 34 | 1007.0 |
| 20260505223052 | 27 | 200 | 19.3 | 35.4 | 0.00 | 0.00 | 0.00 | 33 | 1006.9 |
| 20260505221548 | 27 | 248 | 8.0 | 33.8 | 0.00 | 0.00 | 0.00 | 33 | 1006.8 |
| 20260505220047 | 27 | 222 | 14.5 | 40.2 | 0.00 | 0.00 | 0.00 | 35 | 1006.9 |
| 20260505214543 | 27 | 281 | 4.8 | 25.7 | 0.00 | 0.00 | 0.00 | 34 | 1006.6 |
| 20260505213051 | 28 | 189 | 8.0 | 32.2 | 0.00 | 0.00 | 0.00 | 34 | 1006.4 |
| 20260505211547 | 28 | 228 | 11.3 | 24.1 | 0.00 | 0.00 | 0.00 | 34 | 1006.4 |
| 20260505210049 | 28 | 225 | 11.3 | 30.6 | 0.00 | 0.00 | 0.00 | 34 | 1006.2 |
| 20260505204546 | 28 | 243 | 16.1 | 30.6 | 0.00 | 0.00 | 0.00 | 33 | 1006.3 |
| 20260505203050 | 28 | 254 | 8.0 | 33.8 | 0.00 | 0.00 | 0.00 | 34 | 1006.6 |
| 20260505201547 | 28 | 248 | 11.3 | 37.0 | 0.00 | 0.00 | 0.00 | 33 | 1006.6 |
| 20260505200041 | 28 | 252 | 14.5 | 32.2 | 0.00 | 0.00 | 0.00 | 34 | 1006.7 |
| 20260505194556 | 28 | 243 | 11.3 | 45.1 | 0.00 | 0.00 | 0.00 | 34 | 1006.8 |
| 20260505193103 | 28 | 293 | 9.7 | 32.2 | 0.00 | 0.00 | 0.00 | 37 | 1007.2 |
| 20260505191547 | 28 | 274 | 12.9 | 41.8 | 0.00 | 0.00 | 0.00 | 37 | 1007.2 |
| 20260505190044 | 28 | 251 | 12.9 | 45.1 | 0.00 | 0.00 | 0.00 | 36 | 1007.4 |
| 20260505184554 | 27 | 259 | 16.1 | 46.7 | 0.00 | 0.00 | 0.00 | 37 | 1007.8 |
| 20260505183049 | 27 | 199 | 4.8 | 17.7 | 0.00 | 0.00 | 0.00 | 47 | 1007.9 |
| 20260505181540 | 27 | 161 | 9.7 | 24.1 | 0.00 | 0.00 | 0.00 | 45 | 1008.0 |
| 20260505180047 | 27 | 220 | 8.0 | 25.7 | 0.00 | 0.00 | 0.00 | 45 | 1008.2 |
| 20260505174542 | 27 | 232 | 6.4 | 22.5 | 0.00 | 0.00 | 0.00 | 47 | 1008.2 |
| 20260505173049 | 27 | 194 | 4.8 | 27.4 | 0.00 | 0.00 | 0.00 | 47 | 1008.5 |
| 20260505171554 | 26 | 273 | 6.4 | 17.7 | 0.00 | 0.00 | 0.00 | 48 | 1008.6 |
| 20260505170051 | 26 | 237 | 6.4 | 24.1 | 0.00 | 0.00 | 0.00 | 48 | 1008.6 |
| 20260505164549 | 26 | 254 | 4.8 | 27.4 | 0.00 | 0.00 | 0.00 | 49 | 1009.0 |
| 20260505163049 | 25 | 134 | 4.8 | 19.3 | 0.00 | 0.00 | 0.00 | 50 | 1009.2 |
| 20260505161549 | 25 | 283 | 6.4 | 22.5 | 0.00 | 0.00 | 0.00 | 51 | 1009.3 |
| 20260505153049 | 23 | 252 | 4.8 | 19.3 | 0.00 | 0.00 | 0.00 | 55 | 1009.8 |
| 20260505151550 | 23 | 146 | 4.8 | 16.1 | 0.00 | 0.00 | 0.00 | 55 | 1009.9 |
| 20260505130114 | 17 | 231 | 4.8 | 16.1 | 0.00 | 0.00 | 0.00 | 73 | 1010.2 |